Regional Weather Roundup
Issued by NWS

Home | Current Version | Previous Version | Graphics & Text | Print | Product List | Glossary Off
Versions: 1 2 3 4 5 6 7 8 9 10 11 12 13 14 15 16 17 18 19 20 21 22 23 24 25 26 27 28 29 30 31 32 33 34 35 36 37 38 39 40 41 42 43 44 45 46 47 48 49 50

952
ASUS43 KTOP 240008
RWRKS

WEATHER ROUNDUP FOR KANSAS
NATIONAL WEATHER SERVICE GOODLAND KS
600 PM CST TUE JAN 23 2018

NOTE:  "FAIR" INDICATES FEW OR NO CLOUDS BELOW 12,000 FEET WITH NO
SIGNIFICANT WEATHER AND/OR OBSTRUCTIONS TO VISIBILITY.

KSZ001>006-013>018-027>032-041>047-240100-
NORTHWEST KANSAS

CITY           SKY/WX    TMP DP  RH WIND       PRES   REMARKS
GOODLAND       CLEAR     27  21  78 W12       30.26R WCI  17
6HR MIN TEMP:  27; 6HR MAX TEMP:  35;

HAYS           CLEAR     38  26  62 NW7       30.27R
HILL CITY      CLEAR     36  28  73 NW8       30.28R
6HR MIN TEMP:  36; 6HR MAX TEMP:  41;

RUSSELL        CLEAR     37  29  72 NW8       30.25R
6HR MIN TEMP:  36; 6HR MAX TEMP:  43;

$$

KSZ061>065-074>080-084>089-240100-
SOUTHWEST KANSAS

CITY           SKY/WX    TMP DP  RH WIND       PRES   REMARKS
DODGE CITY     CLEAR     39  20  46 NW8       30.28R
6HR MIN TEMP:  39; 6HR MAX TEMP:  60;

ELKHART        CLEAR     41  16  36 N7        30.30R
GARDEN CITY    CLEAR     36  20  52 NW8       30.28R
6HR MIN TEMP:  36; 6HR MAX TEMP:  47;

GREAT BEND     CLEAR     36  23  59 NW7       30.27R
LIBERAL        CLEAR     42  14  32 N9        30.29R
PRATT          CLEAR     40  20  44 NW8       30.27R
6HR MIN TEMP:  40; 6HR MAX TEMP:  50;

$$

KSZ066>073-081>083-090>101-240100-
SOUTHEAST KANSAS

CITY           SKY/WX    TMP DP  RH WIND       PRES   REMARKS
CHANUTE        CLEAR     39  21  48 W3        30.26R
6HR MIN TEMP:  39; 6HR MAX TEMP:  45;

COFFEYVILLE    CLEAR     42  20  41 CALM      30.26R
6HR MIN TEMP:  36; 6HR MAX TEMP:  49;

HUTCHINSON     CLEAR     41  23  48 NW10      30.25R
6HR MIN TEMP:  39; 6HR MAX TEMP:  49;

MEDICINE LODGE   N/A     46  20  35 N8        30.26R
NEWTON         CLEAR     39  22  50 NW7       30.25R
PARSONS        CLEAR     36  21  54 CALM      30.27R
6HR MIN TEMP:  32; 6HR MAX TEMP:  46;

WICHITA INTL   CLEAR     44  19  36 W5        30.25R
6HR MIN TEMP:  40; 6HR MAX TEMP:  50;

WICHITA JABRA  CLEAR     42  20  41 W5        30.25R
6HR MIN TEMP:  39; 6HR MAX TEMP:  47;

WICHITA MCCONL CLEAR     44  17  34 W5        30.25R
WINFIELD       CLEAR     41  17  38 NW3       30.27R
6HR MIN TEMP:  41; 6HR MAX TEMP:  50;

$$

KSZ007>012-019>026-033>040-048>060-102>105-240100-
NORTHEAST KANSAS

CITY           SKY/WX    TMP DP  RH WIND       PRES   REMARKS
CONCORDIA      CLEAR     35  27  72 W6        30.23R
6HR MIN TEMP:  33; 6HR MAX TEMP:  41;

EMPORIA        CLEAR     35  23  61 NW5       30.25R
6HR MIN TEMP:  29; 6HR MAX TEMP:  41;

LAWRENCE       CLEAR     31  26  82 W7        30.25R
6HR MIN TEMP:  29; 6HR MAX TEMP:  35;

MANHATTAN      CLEAR     34  26  72 CALM      30.23F
6HR MIN TEMP:  29; 6HR MAX TEMP:  41;

MARYSVILLE     CLOUDY    34  28  80 W6        30.23R
OLATHE IND     CLEAR     30  25  81 W6        30.25R
6HR MIN TEMP:  28; 6HR MAX TEMP:  34;

OLATHE EXE     CLEAR     31  26  82 W5        30.24R
6HR MIN TEMP:  28; 6HR MAX TEMP:  34;

SALINA         CLEAR     36  25  64 W8        30.25S
6HR MIN TEMP:  36; 6HR MAX TEMP:  47;

TOPEKA BILLARD MOCLDY    33  27  78 W3        30.25R
6HR MIN TEMP:  28; 6HR MAX TEMP:  35;

TOPEKA FORBES  PTCLDY    33  27  78 NW6       30.24R
6HR MIN TEMP:  29; 6HR MAX TEMP:  37;

$$




USA.gov is the U.S. government's official web portal to all federal, state and local government web resources and services.